Change the Weather History Date:

Friday, February 7, 2014

  Actual Average Record
Temperature  
Mean Temperature 33 °F -  
Max Temperature 41 °F 39 °F 64 °F (2015)
Min Temperature 25 °F 19 °F -12 °F (1989)
Degree Days  
Heating Degree Days 32    
Moisture  
Dew Point 27 °F    
Average Humidity 77    
Maximum Humidity 92    
Minimum Humidity 53    
Precipitation  
Precipitation 0.03 in - - ()
Sea Level Pressure  
Sea Level Pressure 29.84 in    
Wind  
Wind Speed 5 mph (South)    
Max Wind Speed 20 mph    
Max Gust Speed 29 mph    
Visibility 6 miles    
Events Fog , Rain , Snow    
Averages and records for this station are not official NWS values.
T = Trace of Precipitation, MM = Missing Value Source: NWS Daily Summary

Daily Weather History Graph

Daily Weather History Graph

Search for Another Location

Airport or City:

Trip Planner

Search our weather history database for the weather conditions in past years. The results will help you decide how hot, cold, wet, or windy it might be!

Date:

Astronomy

Feb. 07, 2014 Rise Set
Actual Time 7:32 AM MST 5:52 PM MST
Civil Twilight 7:03 AM MST 6:21 PM MST
Nautical Twilight 6:31 AM MST 6:53 PM MST
Astronomical Twilight 5:59 AM MST 7:26 PM MST
Moon 12:05 PM MST (2/7) 1:52 AM MST (2/7)
Length of Visible Light 11h 17m
Length of Day
10h 19m
First Quarter, 60% of the Moon is Illuminated
Feb 7
First Quarter
Feb 14
Full
Feb 22
Last Quarter
Mar 1
New
Mar 8
First Quarter

Hourly Weather History & Observations

Time (MST) Temp. Windchill Dew Point Humidity Pressure Visibility Wind Dir Wind Speed Gust Speed Precip Events Conditions
12:53 AM 25.0 °F - 19.0 °F 78% 29.86 in 7.0 mi Calm Calm - N/A   Overcast
1:53 AM 25.0 °F 19.3 °F 19.9 °F 81% 29.85 in 5.0 mi North 4.6 mph - 0.00 in Snow Light Snow
2:53 AM 26.1 °F - 21.0 °F 81% 29.84 in 7.0 mi Calm Calm - 0.00 in   Overcast
3:53 AM 28.0 °F 24.2 °F 23.0 °F 81% 29.83 in 3.0 mi West 3.5 mph - 0.00 in Snow Light Snow
4:53 AM 28.0 °F 24.2 °F 24.1 °F 85% 29.83 in 6.0 mi South 3.5 mph - 0.00 in   Overcast
5:28 AM 30.0 °F - 25.0 °F 82% 29.79 in 2.5 mi Calm Calm - 0.00 in Snow Light Snow
5:38 AM 28.9 °F 23.9 °F 25.0 °F 85% 29.79 in 4.0 mi ESE 4.6 mph - 0.00 in   Overcast
5:53 AM 30.0 °F - 26.1 °F 85% 29.83 in 4.0 mi Calm Calm - 0.00 in Snow Light Snow
6:35 AM 30.0 °F - 26.1 °F 85% 29.81 in 6.0 mi Calm Calm - 0.00 in   Overcast
6:53 AM 30.0 °F 26.5 °F 26.1 °F 85% 29.86 in 5.0 mi SSE 3.5 mph - 0.01 in Snow Light Snow
7:05 AM 30.9 °F 25.2 °F 26.1 °F 82% 29.81 in 5.0 mi SSE 5.8 mph - 0.00 in   Haze
7:53 AM 28.9 °F 19.8 °F 26.1 °F 89% 29.89 in 1.8 mi NW 10.4 mph - 0.00 in Snow Light Snow
7:56 AM 28.9 °F 20.4 °F 26.1 °F 89% 29.84 in 0.5 mi WNW 9.2 mph - 0.00 in Fog , Snow Snow
8:07 AM 30.0 °F 24.1 °F 28.0 °F 92% 29.83 in 0.2 mi SSW 5.8 mph - 0.02 in Fog , Snow Snow
8:17 AM 30.0 °F 22.4 °F 27.0 °F 88% 29.82 in 0.8 mi South 8.1 mph - 0.02 in Snow Light Snow
8:22 AM 30.0 °F 22.4 °F 27.0 °F 88% 29.82 in 1.0 mi South 8.1 mph - 0.02 in Snow Light Snow
8:30 AM 30.0 °F 22.4 °F 27.0 °F 88% 29.82 in 1.8 mi SE 8.1 mph - 0.02 in   Overcast
8:46 AM 30.0 °F 23.2 °F 27.0 °F 88% 29.83 in 2.5 mi SSE 6.9 mph - 0.02 in   Overcast
8:53 AM 30.9 °F 22.8 °F 28.0 °F 89% 29.88 in 2.5 mi SSE 9.2 mph - 0.02 in   Overcast
9:02 AM 30.9 °F 24.3 °F 28.0 °F 89% 29.83 in 3.0 mi SSE 6.9 mph - N/A   Mostly Cloudy
9:53 AM 35.1 °F 26.4 °F 28.9 °F 78% 29.86 in 9.0 mi South 12.7 mph - N/A   Overcast
10:53 AM 33.1 °F - 28.9 °F 85% 29.91 in 5.0 mi Calm Calm - N/A   Overcast
11:53 AM 37.0 °F 30.4 °F 28.0 °F 70% 29.89 in 10.0 mi South 9.2 mph - N/A   Overcast
12:53 PM 37.9 °F 31.5 °F 28.9 °F 70% 29.87 in 10.0 mi SSW 9.2 mph - N/A   Overcast
1:53 PM 39.9 °F 33.9 °F 25.0 °F 55% 29.84 in 10.0 mi SSW 9.2 mph - N/A   Mostly Cloudy
2:53 PM 41.0 °F 35.2 °F 25.0 °F 53% 29.83 in 10.0 mi South 9.2 mph - N/A   Overcast
3:53 PM 37.9 °F 30.9 °F 28.0 °F 68% 29.84 in 10.0 mi South 10.4 mph - N/A   Overcast
4:53 PM 41.0 °F 37.1 °F 26.1 °F 55% 29.84 in 10.0 mi SW 5.8 mph - N/A   Overcast
5:53 PM 37.9 °F 30.9 °F 27.0 °F 65% 29.86 in 10.0 mi South 10.4 mph - N/A   Overcast
6:53 PM 37.9 °F 30.9 °F 27.0 °F 65% 29.86 in 10.0 mi South 10.4 mph - N/A   Overcast
7:53 PM 37.9 °F 29.2 °F 27.0 °F 65% 29.86 in 10.0 mi South 15.0 mph - N/A   Overcast
8:53 PM 39.9 °F 30.8 °F 26.1 °F 58% 29.86 in 10.0 mi SSW 18.4 mph 28.8 mph N/A   Overcast
9:49 PM 39.2 °F 29.6 °F 26.6 °F 61% 29.88 in 10.0 mi SSW 19.6 mph 26.5 mph 0.00 in Rain Light Rain
9:53 PM 37.9 °F 30.5 °F 28.0 °F 68% 29.88 in 10.0 mi SW 11.5 mph 26.5 mph 0.00 in Rain Light Rain
10:39 PM 37.0 °F 31.6 °F 28.9 °F 73% 29.84 in 10.0 mi SSE 6.9 mph - 0.00 in Rain Light Rain
10:53 PM 37.0 °F 33.3 °F 28.9 °F 73% 29.86 in 10.0 mi SE 4.6 mph - 0.00 in   Overcast
11:07 PM 36.0 °F 29.6 °F 30.0 °F 79% 29.83 in 10.0 mi ESE 8.1 mph - N/A   Overcast
11:26 PM 36.0 °F 30.3 °F 30.0 °F 79% 29.82 in 10.0 mi ESE 6.9 mph - N/A   Overcast
11:53 PM 37.0 °F 30.4 °F 30.0 °F 76% 29.82 in 10.0 mi SSW 9.2 mph - 0.00 in Rain Light Rain